Weslaco, TX

2:17 AM CST on December 17, 2017 (GMT -0600)
Weslaco

Weather History for KT65 - January, 2014

Change the Weather History Date:

Sunday, January 5, 2014

  Actual Average (KMFE) Record (KMFE)
Temperature  
Mean Temperature 62 °F -  
Max Temperature 73 °F 69 °F 86 °F (1946)
Min Temperature 50 °F 49 °F 30 °F (1884)
Degree Days  
Heating Degree Days 4    
Growing Degree Days 12 (Base 50)    
Moisture  
Dew Point 49 °F    
Average Humidity 67    
Maximum Humidity 91    
Minimum Humidity 41    
Precipitation  
Precipitation 0.00 in - - ()
Sea Level Pressure  
Sea Level Pressure 30.01 in    
Wind  
Wind Speed 10 mph (NW)    
Max Wind Speed 23 mph    
Max Gust Speed 31 mph    
Visibility 9 miles    
Events      
Averages and records for this station are not official NWS values.
T = Trace of Precipitation, MM = Missing Value Source: NWS Daily Summary

Daily Weather History Graph

Daily Weather History Graph

Search for Another Location

Airport or City:

Trip Planner

Search our weather history database for the weather conditions in past years. The results will help you decide how hot, cold, wet, or windy it might be!

Date:

Astronomy

Jan. 05, 2014 Rise Set
Actual Time 7:20 AM CST 5:54 PM CST
Civil Twilight 6:55 AM CST 6:19 PM CST
Nautical Twilight 6:26 AM CST 6:48 PM CST
Astronomical Twilight 5:58 AM CST 7:16 PM CST
Moon 10:32 AM CST (1/5) 10:50 PM CST (1/5)
Length of Visible Light 11h 24m
Length of Day
10h 34m
Waxing Crescent, 25% of the Moon is Illuminated
Jan 5
Waxing Crescent
Jan 7
First Quarter
Jan 15
Full
Jan 23
Last Quarter
Jan 30
New

Hourly Weather History & Observations

Time (CST) Temp. Dew Point Humidity Pressure Visibility Wind Dir Wind Speed Gust Speed Precip Events Conditions
12:15 AM 60.4 °F 57.2 °F 89% 29.88 in 10.0 mi South 8.1 mph - N/A   Clear
12:35 AM 60.1 °F 57.0 °F 90% 29.88 in 10.0 mi South 8.1 mph - N/A   Clear
12:55 AM 59.9 °F 56.8 °F 90% 29.87 in 10.0 mi South 8.1 mph - N/A   Clear
1:15 AM 59.9 °F 56.7 °F 89% 29.87 in 10.0 mi South 9.2 mph - N/A   Clear
1:35 AM 59.9 °F 57.2 °F 91% 29.86 in 10.0 mi South 11.5 mph - N/A   Clear
1:55 AM 59.9 °F 56.8 °F 90% 29.85 in 10.0 mi South 10.4 mph - N/A   Clear
2:15 AM 60.4 °F 57.4 °F 90% 29.84 in 10.0 mi South 11.5 mph 18.4 mph N/A   Clear
2:35 AM 60.4 °F 57.4 °F 90% 29.85 in 10.0 mi South 11.5 mph 17.3 mph N/A   Clear
2:55 AM 60.4 °F 57.4 °F 90% 29.85 in 10.0 mi South 10.4 mph - N/A   Clear
3:15 AM 61.0 °F 57.7 °F 89% 29.84 in 10.0 mi South 12.7 mph - N/A   Clear
3:35 AM 61.2 °F 57.7 °F 88% 29.85 in 10.0 mi South 12.7 mph - N/A   Clear
3:55 AM 61.7 °F 58.1 °F 88% 29.84 in 10.0 mi South 12.7 mph 18.4 mph N/A   Clear
4:15 AM 61.7 °F 57.9 °F 87% 29.84 in 10.0 mi South 10.4 mph - N/A   Clear
4:35 AM 62.1 °F 58.1 °F 87% 29.84 in 10.0 mi South 11.5 mph 19.6 mph N/A   Clear
4:55 AM 62.1 °F 58.1 °F 87% 29.84 in 10.0 mi South 11.5 mph - N/A   Clear
5:15 AM 62.1 °F 58.1 °F 87% 29.85 in 10.0 mi South 10.4 mph 16.1 mph N/A   Clear
5:35 AM 61.7 °F 57.7 °F 87% 29.84 in 10.0 mi South 11.5 mph 17.3 mph N/A   Clear
5:55 AM 61.2 °F 57.6 °F 88% 29.85 in 10.0 mi South 11.5 mph - N/A   Clear
6:15 AM 61.2 °F 57.4 °F 87% 29.85 in 10.0 mi South 11.5 mph - N/A   Clear
6:35 AM 61.0 °F 57.2 °F 87% 29.85 in 10.0 mi South 9.2 mph - N/A   Clear
6:55 AM 60.6 °F 57.0 °F 88% 29.86 in 10.0 mi South 8.1 mph - N/A   Clear
7:15 AM 60.3 °F 56.8 °F 88% 29.86 in 10.0 mi South 8.1 mph - N/A   Clear
7:35 AM 60.1 °F 56.7 °F 88% 29.87 in 10.0 mi South 9.2 mph - N/A   Clear
7:55 AM 60.4 °F 56.8 °F 88% 29.88 in 7.0 mi South 8.1 mph - N/A   Clear
8:15 AM 61.0 °F 57.0 °F 87% 29.89 in 7.0 mi South 5.8 mph - N/A   Clear
8:35 AM 62.1 °F 57.2 °F 84% 29.91 in 10.0 mi South 4.6 mph - N/A   Clear
8:55 AM 62.6 °F 57.4 °F 83% 29.91 in 7.0 mi South 8.1 mph - N/A   Clear
9:15 AM 63.5 °F 57.6 °F 81% 29.91 in 7.0 mi South 9.2 mph - N/A   Clear
9:35 AM 65.7 °F 58.1 °F 77% 29.91 in 7.0 mi South 10.4 mph - N/A   Clear
9:55 AM 66.0 °F 57.4 °F 74% 29.92 in 7.0 mi South 10.4 mph - N/A   Clear
10:15 AM 68.0 °F 57.4 °F 69% 29.93 in 7.0 mi South 9.2 mph - N/A   Clear
10:35 AM 68.7 °F 57.6 °F 67% 29.93 in 7.0 mi SSW 13.8 mph - N/A   Clear
10:55 AM 70.3 °F 57.9 °F 65% 29.93 in 7.0 mi SSW 8.1 mph - N/A   Clear
11:15 AM 70.7 °F 57.7 °F 63% 29.92 in 10.0 mi SSW 6.9 mph - N/A   Clear
11:35 AM 71.8 °F 57.9 °F 62% 29.97 in 7.0 mi NW 15.0 mph 19.6 mph N/A   Clear
11:55 AM 72.3 °F 57.7 °F 60% 29.95 in 10.0 mi NW 8.1 mph 20.7 mph N/A   Scattered Clouds
12:15 PM 73.6 °F 57.6 °F 57% 29.95 in 7.0 mi North 16.1 mph 21.9 mph N/A   Scattered Clouds
12:35 PM 72.0 °F 56.1 °F 57% 29.95 in 10.0 mi North 18.4 mph 24.2 mph N/A   Scattered Clouds
12:55 PM 70.5 °F 55.8 °F 59% 29.95 in 7.0 mi NNW 17.3 mph 24.2 mph N/A   Clear
1:15 PM 69.4 °F 54.9 °F 60% 29.95 in 10.0 mi NNW 18.4 mph 25.3 mph N/A   Clear
1:35 PM 69.3 °F 54.5 °F 59% 29.95 in 10.0 mi North 13.8 mph 25.3 mph N/A   Clear
1:55 PM 70.9 °F 54.7 °F 56% 29.96 in 7.0 mi North 12.7 mph 26.5 mph N/A   Scattered Clouds
2:15 PM 69.1 °F 54.7 °F 60% 29.97 in 10.0 mi North 23.0 mph 31.1 mph N/A   Mostly Cloudy
2:35 PM 64.8 °F 51.8 °F 63% 30.01 in 7.0 mi North 19.6 mph 28.8 mph N/A   Overcast
2:55 PM 61.2 °F 48.0 °F 62% 30.02 in 7.0 mi North 17.3 mph 25.3 mph N/A   Overcast
3:15 PM 59.0 °F 46.4 °F 63% 30.04 in 7.0 mi North 20.7 mph 29.9 mph N/A   Overcast
3:35 PM 58.5 °F 45.5 °F 62% 30.05 in 10.0 mi North 17.3 mph 26.5 mph N/A   Overcast
3:55 PM 59.2 °F 44.8 °F 59% 30.07 in 10.0 mi North 11.5 mph 18.4 mph N/A   Overcast
4:15 PM 59.9 °F 44.6 °F 57% 30.08 in 7.0 mi North 12.7 mph 20.7 mph N/A   Scattered Clouds
4:35 PM 59.7 °F 41.2 °F 50% 30.09 in 7.0 mi North 12.7 mph 21.9 mph N/A   Clear
4:55 PM 59.2 °F 40.6 °F 50% 30.10 in 7.0 mi North 11.5 mph - N/A   Clear
5:15 PM 59.0 °F 40.1 °F 50% 30.12 in 10.0 mi North 8.1 mph - N/A   Clear
5:35 PM 58.5 °F 39.4 °F 49% 30.13 in 10.0 mi North 8.1 mph - N/A   Clear
5:55 PM 58.5 °F 37.4 °F 45% 30.13 in 10.0 mi North 9.2 mph - N/A   Clear
6:15 PM 58.1 °F 37.8 °F 47% 30.15 in 10.0 mi North 9.2 mph - N/A   Clear
6:35 PM 57.2 °F 37.0 °F 47% 30.16 in 10.0 mi North 6.9 mph - N/A   Clear
6:55 PM 56.5 °F 37.0 °F 48% 30.18 in 10.0 mi North 5.8 mph - N/A   Clear
7:15 PM 56.3 °F 36.0 °F 46% 30.20 in 7.0 mi North 6.9 mph - N/A   Clear
7:35 PM 56.3 °F 33.8 °F 43% 30.21 in 10.0 mi North 8.1 mph - N/A   Clear
7:55 PM 55.8 °F 33.3 °F 43% 30.22 in 10.0 mi North 6.9 mph - N/A   Clear
8:15 PM 55.0 °F 33.8 °F 45% 30.23 in 10.0 mi North 8.1 mph - N/A   Clear
8:35 PM 54.5 °F 34.3 °F 47% 30.24 in 10.0 mi North 6.9 mph - N/A   Clear
8:55 PM 54.0 °F 35.2 °F 49% 30.25 in 10.0 mi North 8.1 mph - N/A   Clear
9:15 PM 53.6 °F 33.1 °F 46% 30.27 in 10.0 mi NNE 12.7 mph 18.4 mph N/A   Clear
9:35 PM 52.9 °F 32.0 °F 45% 30.29 in 10.0 mi North 8.1 mph 16.1 mph N/A   Clear
9:55 PM 52.7 °F 31.3 °F 44% 30.29 in 7.0 mi North 8.1 mph 18.4 mph N/A   Clear
10:15 PM 52.3 °F 31.5 °F 45% 30.31 in 10.0 mi North 9.2 mph 16.1 mph N/A   Clear
10:35 PM 51.6 °F 30.6 °F 45% 30.32 in 7.0 mi North 10.4 mph 18.4 mph N/A   Clear
10:55 PM 51.1 °F 30.0 °F 44% 30.33 in 10.0 mi North 8.1 mph 16.1 mph N/A   Clear
11:15 PM 50.5 °F 30.7 °F 47% 30.33 in 7.0 mi North 9.2 mph - N/A   Clear
11:35 PM 50.0 °F 31.3 °F 49% 30.34 in 7.0 mi North 9.2 mph - N/A   Clear
11:55 PM 50.0 °F 27.3 °F 41% 30.34 in 10.0 mi North 11.5 mph 18.4 mph N/A   Clear